Regional Weather Roundup
Issued by NWS

Home | Current Version | Previous Version | Text Only | Print | Product List | Glossary Off
Versions: 1 2 3 4 5 6 7 8 9 10 11 12 13 14 15 16 17 18 19 20 21 22 23 24 25 26 27 28 29 30 31 32 33 34 35 36 37 38 39 40 41 42 43 44 45 46 47 48 49 50

000
ASUS43 KBIS 272202
RWRND

NORTH DAKOTA REGIONAL WEATHER ROUNDUP
NATIONAL WEATHER SERVICE BISMARCK ND
500 PM CDT MON JUL 27 2015

NOTE: "FAIR" INDICATES FEW OR NO CLOUDS BELOW 12,000 FEET WITH NO
SIGNIFICANT WEATHER AND/OR OBSTRUCTIONS TO VISIBILITY.


NDZ001>003-009>011-017-272300-
NORTHWEST NORTH DAKOTA

CITY           SKY/WX    TMP DP  RH WIND       PRES   REMARKS
WILLISTON      PTSUNNY   88  62  41 SE12G17   29.62F
MINOT          FAIR      91  65  41 SE20G30   29.65F HX  93
MINOT AFB      FAIR      90  71  53 SE13G23   29.65F HX  97
$$

NDZ018>021-031>035-040>046-272300-
SOUTHWEST NORTH DAKOTA

CITY           SKY/WX    TMP DP  RH WIND       PRES   REMARKS
BISMARCK       SUNNY     92  66  42 S25G32    29.66F HX  94
DICKINSON      PTSUNNY   87  66  49 SE20G28   29.62F
GARRISON         N/A     85  72  65 S23       29.64F HX  91
HETTINGER ARPT SUNNY     92  61  35 SE21G28   29.66F HX  92
$$

NDZ004>008-012>016-024-026-027-054-272300-
NORTHEAST NORTH DAKOTA

CITY           SKY/WX    TMP DP  RH WIND       PRES   REMARKS
GRAND FORKS    PTSUNNY   86  72  62 SE18      29.78F HX  92
DEVILS LAKE    FAIR      84  68  58 SE18G25   29.75F
$$

NDZ022-023-025-028>030-036>039-047>053-272300-
SOUTHEAST NORTH DAKOTA

CITY           SKY/WX    TMP DP  RH WIND       PRES   REMARKS
FARGO          FAIR      90  69  50 SE21G26   29.79F HX  94
JAMESTOWN      FAIR      87  73  62 SE18G28   29.74F HX  94
$$




USA.gov is the U.S. government's official web portal to all federal, state and local government web resources and services.